DW7831 Weather Reports


time (UTC)temp
C
wind
direction
speed
KPH
gust
KPH
rain 1hr
cm
rain 24hr
cm
rain mn
cm
humidity
%
barometer
mb
20260508000033 7 305 0.0 0.0 0.00 0.00 0.05 50 1009.8
20260507234533 8 304 0.0 0.0 0.00 0.00 0.05 48 1009.8
20260507233041 8 304 0.0 0.0 0.00 0.00 0.05 47 1009.5
20260507231536 8 315 3.2 0.0 0.00 0.00 0.05 46 1009.7
20260507230034 9 315 3.2 0.0 0.00 0.00 0.05 46 1009.7
20260507224540 8 303 4.8 0.0 0.00 0.00 0.05 46 1009.6
20260507223033 9 307 8.0 0.0 0.00 0.00 0.05 45 1009.5
20260507221535 9 298 4.8 0.0 0.00 0.00 0.05 44 1009.4
20260507220027 9 300 4.8 0.0 0.00 0.00 0.05 46 1009.6
20260507214524 9 321 3.2 0.0 0.00 0.00 0.05 45 1009.7
20260507213018 9 271 3.2 0.0 0.00 0.00 0.05 45 1009.7
20260507211521 10 310 3.2 0.0 0.00 0.00 0.05 44 1009.5
20260507210008 9 265 3.2 0.0 0.00 0.00 0.05 45 1009.4
20260507204505 9 281 4.8 0.0 0.00 0.00 0.05 44 1009.5
20260507203111 9 277 3.2 0.0 0.00 0.00 0.05 46 1009.6
20260507201600 10 270 8.0 0.0 0.00 0.00 0.05 44 1009.6
20260507200107 10 273 6.4 0.0 0.00 0.00 0.05 44 1009.4
20260507194549 10 225 8.0 0.0 0.00 0.00 0.05 47 1009.7
20260507193048 10 267 8.0 0.0 0.00 0.00 0.05 48 1009.9
20260507191540 8 334 4.8 0.0 0.00 0.00 0.05 52 1010.0
20260507190037 9 305 3.2 0.0 0.00 0.00 0.05 50 1010.1
20260507184532 8 280 3.2 0.0 0.00 0.00 0.05 53 1010.2
20260507183028 8 294 6.4 0.0 0.00 0.00 0.05 51 1010.3
20260507181529 8 263 4.8 0.0 0.00 0.00 0.05 50 1010.4
20260507180026 8 252 8.0 0.0 0.00 0.00 0.05 53 1010.4
20260507174523 8 290 4.8 0.0 0.00 0.00 0.05 51 1010.6
20260507173030 8 292 6.4 0.0 0.00 0.00 0.05 50 1010.4
20260507171517 8 313 4.8 0.0 0.00 0.00 0.05 51 1010.7
20260507170016 8 284 6.4 0.0 0.00 0.00 0.05 50 1010.7
20260507164510 8 290 6.4 0.0 0.00 0.00 0.05 50 1010.7
20260507163010 8 257 4.8 0.0 0.00 0.00 0.05 50 1010.9
20260507161503 8 287 6.4 0.0 0.00 0.00 0.05 51 1011.0
20260507160100 8 234 6.4 0.0 0.00 0.00 0.05 52 1011.0
20260507154559 8 24 4.8 0.0 0.00 0.00 0.05 52 1011.1
20260507153051 7 234 6.4 0.0 0.00 0.00 0.05 54 1011.7
20260507151547 7 286 6.4 0.0 0.00 0.00 0.05 55 1011.6
20260507150044 7 290 4.8 0.0 0.00 0.00 0.05 54 1011.5
20260507144539 7 323 11.3 0.0 0.00 0.00 0.05 54 1011.6
20260507143037 6 304 9.7 0.0 0.00 0.00 0.03 56 1011.8
20260507141530 6 236 9.7 0.0 0.00 0.00 0.03 57 1011.5
20260507140032 6 284 8.0 0.0 0.00 0.00 0.03 57 1011.5
20260507134528 6 309 6.4 0.0 0.00 0.00 0.03 57 1011.7
20260507133025 5 274 6.4 0.0 0.00 0.00 0.03 58 1011.5
20260507131523 5 287 6.4 0.0 0.00 0.00 0.03 59 1011.5
20260507130014 5 285 6.4 0.0 0.00 0.00 0.03 59 1011.7
20260507124511 4 269 6.4 0.0 0.00 0.00 0.03 59 1011.5
20260507123008 4 280 1.6 0.0 0.00 0.00 0.03 59 1011.5
20260507121501 3 244 4.8 0.0 0.00 0.00 0.03 59 1011.6
20260507120103 3 229 4.8 0.0 0.00 0.00 0.03 59 1011.6
20260507114634 3 271 1.6 0.0 0.00 0.00 0.03 56 1011.4
20260507113048 3 263 1.6 0.0 0.00 0.00 0.03 51 1011.6
20260507111546 2 259 1.6 0.0 0.00 0.00 0.03 44 1011.2
20260507110041 2 259 1.6 0.0 0.00 0.00 0.03 36 1011.2
20260507104537 1 261 1.6 0.0 0.00 0.00 0.03 30 1011.1
20260507103033 1 265 0.0 0.0 0.00 0.00 0.03 28 1011.1
20260507101529 1 269 0.0 0.0 0.00 0.00 0.03 24 1010.8
20260507100024 2 269 0.0 0.0 0.00 0.00 0.03 21 1010.6
20260507094521 2 270 1.6 0.0 0.00 0.00 0.03 18 1010.8
20260507093016 2 270 0.0 0.0 0.00 0.00 0.03 18 1010.8
20260507091512 2 270 1.6 0.0 0.00 0.00 0.03 12 1010.5
20260507090020 3 270 1.6 0.0 0.00 0.00 0.03 100 1010.5
20260507084504 3 270 1.6 0.0 0.00 0.00 0.03 100 1010.8
20260507083001 3 271 3.2 0.0 0.00 0.00 0.03 100 1010.4
20260507081557 3 268 1.6 0.0 0.00 0.00 0.03 100 1010.4
20260507080118 4 288 3.2 0.0 0.00 0.00 0.03 100 1010.4
20260507074554 4 287 3.2 0.0 0.00 0.00 0.03 100 1010.5
20260507073052 4 258 1.6 0.0 0.00 0.00 0.03 100 1010.5
20260507071543 4 283 4.8 0.0 0.00 0.00 0.00 100 1010.3
20260507070038 5 258 6.4 0.0 0.00 0.00 0.00 100 1010.0
20260507064533 5 254 1.6 0.0 0.00 0.00 0.00 100 1010.0
20260507063029 5 237 3.2 0.0 0.00 0.00 0.00 100 1009.8
20260507061525 4 277 1.6 0.0 0.00 0.00 0.00 100 1009.7
20260507060022 4 277 0.0 0.0 0.00 0.00 0.00 100 1009.6
20260507054521 4 277 0.0 0.0 0.00 0.00 0.00 100 1009.6
20260507053014 4 277 0.0 0.0 0.00 0.00 0.00 100 1009.8
20260507051510 4 277 0.0 0.0 0.00 0.00 0.00 100 1010.0
20260507050006 5 277 0.0 0.0 0.00 0.00 0.00 100 1009.6
20260507044502 5 277 0.0 0.0 0.00 0.00 0.00 100 1010.0
20260507043058 5 277 0.0 0.0 0.00 0.00 0.00 100 1009.9
20260507041555 5 277 0.0 0.0 0.00 0.00 0.00 100 1010.3
20260507040056 5 277 0.0 0.0 0.00 0.00 0.00 100 1009.7
20260507034555 5 277 0.0 0.0 0.00 0.00 1.63 100 1010.2
20260507033049 5 277 0.0 0.0 0.00 0.00 1.63 100 1009.8
20260507031541 5 277 0.0 0.0 0.00 0.00 1.63 100 1010.1
20260507030036 5 277 1.6 0.0 0.00 0.00 1.63 100 1010.0
20260507024532 5 275 0.0 0.0 0.00 0.00 1.63 100 1010.2
20260507023027 5 275 3.2 0.0 0.00 0.00 1.63 100 1010.0
20260507021524 6 268 3.2 0.0 0.00 0.00 1.63 100 1010.1
20260507020021 6 266 4.8 0.0 0.00 0.00 1.63 100 1010.2
20260507014523 6 272 3.2 0.0 0.00 0.00 1.63 100 1010.2
20260507013023 6 271 0.0 0.0 0.00 0.00 1.63 100 1009.9
20260507011511 6 269 0.0 0.0 0.00 0.00 1.63 100 1009.7
20260507010004 6 270 3.2 0.0 0.00 0.00 1.63 100 1009.6
20260507004607 6 275 1.6 0.0 0.00 0.00 1.63 100 1009.4
20260507003055 6 275 3.2 0.0 0.00 0.00 1.63 100 1009.3
20260507001552 6 265 1.6 0.0 0.00 0.00 1.60 100 1009.0